Wind_Speed
11 11 11 10 10 10 10 10 10 10 10 11 10 10 10 11 11 11 11 11 11 11 11 11 11 11 12 12 12 13 13 14 15 15 15 16 16 16
10 10 10 11 11 11 11 11 12 11 11 11 11 11 11 11 11 11 12 12 12 11 11 12 12 13 14 14 14 14 15 16 16 16 16 17 17 17
10 10 10 11 11 11 11 12 12 12 11 11 11 11 12 12 12 12 12 12 12 12 12 13 13 14 14 15 16 16 16 17 18 18 18 18 19 19
11 11 11 11 11 11 11 11 12 12 12 12 12 13 12 12 13 13 13 13 13 13 13 14 14 15 16 16 17 17 18 18 19 19 19 20 20 20
12 12 12 12 12 12 11 12 12 12 12 12 13 13 13 13 14 14 14 14 15 15 15 15 16 16 16 17 17 18 18 19 19 19 20 20 21 21
13 13 13 13 13 13 13 12 13 12 13 13 13 13 14 14 15 15 15 16 16 16 16 16 17 17 17 17 18 18 19 19 19 20 21 21 21 22
14 14 14 14 14 14 14 14 14 14 14 14 15 15 15 15 15 16 16 16 16 17 17 18 18 18 18 18 19 19 20 20 20 21 22 22 23 23
15 15 15 15 15 16 16 15 15 15 16 16 16 16 16 16 16 17 17 17 17 18 18 19 19 19 20 20 20 20 21 21 22 23 23 24 24 25
16 16 17 17 17 17 18 18 17 17 18 18 18 18 18 17 17 18 18 19 19 19 20 19 20 20 21 21 21 21 22 22 23 24 24 25 25 25
18 18 18 19 19 19 19 19 19 20 20 20 19 19 19 19 19 18 19 20 20 20 21 20 20 20 21 21 21 22 23 23 24 25 25 25 26 27
19 19 19 19 19 20 21 21 21 21 21 21 21 21 21 21 20 21 21 21 21 21 21 21 21 21 21 22 23 24 24 24 25 25 26 27 27 27
21 21 21 21 21 22 22 22 22 22 22 22 22 21 21 22 22 22 22 22 22 21 22 22 22 22 22 23 24 25 25 26 26 27 27 27 27 27
22 22 22 22 22 22 23 23 23 23 24 23 23 23 22 22 22 22 22 22 22 22 22 22 23 23 23 24 25 26 26 27 27 28 28 28 28 28
23 23 23 23 22 23 23 24 24 24 24 24 24 24 23 23 23 23 23 22 23 23 23 23 24 24 24 25 25 26 27 28 28 28 28 28 29 29
23 23 23 23 22 23 23 23 23 23 24 23 23 23 23 24 24 24 24 24 24 24 25 25 25 26 27 27 27 27 28 28 28 28 28 28 28 29
23 23 23 23 23 23 22 22 23 24 24 24 23 24 23 23 24 24 25 25 26 26 27 27 27 28 29 29 29 28 28 28 28 28 28 28 29 29
23 23 23 23 23 23 23 22 23 24 24 24 24 24 24 24 24 25 26 26 27 28 28 29 29 29 29 29 29 29 28 29 29 29 29 29 29 30
24 23 23 23 23 23 22 22 23 23 23 23 24 24 24 25 25 25 25 26 27 28 29 29 29 30 30 29 29 29 29 29 30 31 31 31 31 31
24 24 23 23 23 23 23 24 25 24 24 23 24 24 24 24 24 25 25 26 27 27 28 28 29 30 30 29 29 30 30 31 31 32 32 32 32 33
24 24 24 23 23 24 24 25 25 25 24 24 24 24 24 24 25 25 26 26 26 26 26 27 29 29 30 30 30 31 31 32 32 32 32 32 33 34
24 24 24 24 24 24 24 24 25 25 25 24 24 25 25 25 25 25 25 25 26 26 27 28 29 30 30 31 31 31 32 33 33 33 33 33 33 34
24 24 24 24 24 25 26 26 26 26 25 25 24 25 25 25 25 25 24 25 25 26 27 27 28 29 29 30 31 32 32 33 34 34 35 35 36 36
24 24 24 24 24 25 26 26 26 25 25 24 24 24 24 24 23 23 23 23 24 24 24 24 25 26 27 28 30 32 32 33 34 34 35 36 37 37
Wind_Direction
292 291 292 293 292 289 288 288 288 288 289 287 286 285 285 287 287 285 286 283 278 279 283 287 287 287 289 292 291 288 287 288 289 288 287 286 285 284
293 291 291 292 293 289 288 287 287 287 288 287 285 284 285 288 287 284 285 283 281 282 285 286 288 291 291 291 291 290 290 290 290 290 289 287 286 285
292 292 292 291 290 292 291 289 288 288 287 286 287 287 287 286 285 286 285 286 285 283 284 286 288 291 291 290 289 289 290 291 292 291 290 288 287 286
292 292 292 293 292 293 295 295 292 291 288 287 288 289 287 285 285 286 288 288 288 288 286 287 289 292 293 293 290 290 291 292 293 293 292 291 290 289
291 291 291 293 293 293 296 296 295 294 291 288 289 288 288 289 290 289 289 288 289 289 289 289 291 294 295 295 293 292 292 293 294 294 295 294 293 292
290 289 289 290 292 292 294 294 293 293 292 291 289 289 289 289 289 287 288 288 289 290 291 292 292 293 293 295 295 294 295 296 296 297 297 297 296 295
287 288 286 284 288 289 291 291 291 292 290 289 289 291 292 291 289 287 287 288 289 290 290 291 293 292 292 294 294 295 297 297 298 299 299 298 297 296
285 285 287 284 283 285 289 290 291 292 292 289 288 288 290 291 290 288 289 290 289 289 289 290 291 291 291 291 292 294 296 298 298 298 298 298 298 297
283 283 286 287 285 284 286 287 288 290 290 289 288 288 287 289 290 289 289 290 291 293 294 294 292 292 292 292 292 294 296 298 298 298 297 298 298 297
283 283 284 286 285 285 286 285 285 286 288 288 287 286 286 287 287 288 290 291 292 294 295 295 296 296 295 295 294 295 296 297 298 299 298 298 298 298
283 283 284 285 285 287 287 285 285 284 285 287 288 287 285 285 286 288 289 290 290 292 293 295 295 297 298 298 298 297 298 298 298 299 299 298 298 298
282 282 283 283 284 286 286 286 285 284 284 285 287 288 286 283 284 287 288 288 290 291 294 294 293 294 297 298 300 301 300 300 300 299 300 300 299 298
280 281 282 281 282 285 285 285 283 282 282 283 284 286 286 284 283 285 287 287 288 290 292 293 293 293 294 296 298 300 301 302 302 301 300 301 300 299
280 280 281 281 282 284 285 284 283 283 282 282 284 284 285 284 284 282 283 284 287 289 290 292 293 294 295 296 297 298 300 301 302 302 301 301 300 299
281 279 280 280 282 284 284 285 285 285 284 284 285 285 285 284 284 284 282 281 285 287 288 290 293 294 295 295 296 298 299 300 300 301 302 302 302 301
284 280 280 281 281 284 286 286 287 286 285 284 285 286 286 284 283 283 283 283 283 285 287 288 290 293 294 295 294 296 298 299 299 300 302 303 303 302
283 282 282 281 281 284 286 287 288 287 285 284 285 285 285 285 284 284 283 283 283 284 286 287 290 292 294 295 295 295 296 297 298 299 300 301 302 302
281 282 282 281 281 283 286 288 290 289 287 286 286 285 286 285 285 285 285 286 286 285 285 286 287 290 293 294 295 295 295 296 297 298 299 299 300 300
280 281 281 281 281 282 284 287 290 290 290 289 289 288 287 285 286 287 288 289 290 288 287 287 288 291 293 293 294 294 295 296 298 298 298 299 299 300
279 279 281 281 281 283 285 287 290 290 290 290 289 288 287 287 286 287 289 290 290 289 288 289 291 292 292 293 294 295 295 296 297 297 297 298 299 300
278 279 280 281 282 284 285 286 289 290 289 288 288 288 287 288 287 287 288 289 290 290 289 290 292 292 292 294 295 296 297 297 297 297 298 298 299 300
279 279 279 280 281 283 284 284 287 288 287 286 286 288 290 290 290 289 289 291 292 293 293 293 294 295 296 297 298 298 298 298 297 298 299 300 301 301
278 279 280 281 282 285 284 285 288 287 286 286 286 289 291 291 291 290 290 292 295 296 296 296 297 298 298 298 300 301 300 299 299 299 301 302 303 303
Height
5823 5822 5822 5821 5820 5820 5819 5819 5819 5818 5817 5816 5816 5815 5814 5814 5813 5812 5812 5811 5811 5810 5809 5809 5808 5807 5807 5806 5805 5804 5803 5802 5800 5799 5798 5797 5797 5796
5820 5819 5819 5818 5817 5817 5816 5815 5815 5815 5814 5814 5813 5812 5811 5811 5810 5809 5809 5808 5808 5807 5806 5806 5805 5804 5803 5802 5801 5800 5799 5798 5797 5795 5794 5793 5792 5791
5817 5817 5816 5815 5814 5813 5813 5812 5812 5811 5811 5810 5810 5809 5808 5808 5807 5806 5806 5805 5804 5804 5803 5802 5801 5800 5799 5798 5797 5796 5795 5794 5792 5791 5789 5788 5787 5785
5815 5814 5813 5812 5811 5811 5810 5809 5808 5808 5807 5807 5806 5806 5805 5804 5803 5803 5802 5801 5801 5800 5799 5798 5797 5797 5795 5794 5793 5792 5790 5789 5788 5786 5784 5783 5781 5779
5811 5811 5810 5809 5808 5807 5807 5806 5805 5804 5804 5803 5803 5802 5801 5801 5800 5799 5798 5798 5797 5796 5795 5794 5793 5792 5791 5790 5788 5787 5786 5784 5783 5781 5779 5777 5775 5773
5808 5807 5807 5806 5805 5804 5803 5803 5802 5801 5800 5800 5799 5799 5798 5797 5796 5795 5795 5794 5793 5792 5791 5790 5789 5788 5786 5785 5784 5782 5781 5779 5777 5775 5773 5771 5769 5767
5804 5804 5803 5802 5801 5801 5800 5799 5798 5797 5797 5796 5795 5794 5794 5793 5792 5791 5790 5789 5788 5788 5787 5786 5784 5783 5782 5780 5779 5777 5776 5774 5772 5770 5768 5766 5763 5761
5800 5799 5799 5798 5797 5797 5796 5795 5794 5793 5793 5792 5791 5790 5789 5788 5787 5786 5786 5785 5784 5783 5782 5781 5779 5778 5776 5775 5774 5772 5770 5768 5766 5764 5762 5759 5757 5755
5795 5795 5794 5794 5793 5792 5791 5790 5789 5788 5788 5787 5786 5785 5785 5784 5783 5782 5781 5780 5779 5777 5776 5775 5773 5772 5770 5769 5767 5766 5764 5762 5759 5757 5755 5752 5750 5747
5790 5789 5789 5788 5787 5787 5786 5785 5784 5783 5782 5781 5781 5780 5779 5778 5777 5777 5775 5774 5773 5772 5771 5769 5767 5766 5764 5762 5761 5759 5757 5755 5753 5750 5747 5745 5742 5740
5784 5784 5783 5782 5782 5781 5780 5779 5778 5777 5776 5775 5774 5774 5773 5772 5771 5771 5770 5769 5768 5766 5765 5763 5762 5760 5758 5756 5754 5752 5750 5748 5745 5743 5740 5737 5735 5732
5778 5778 5777 5776 5776 5775 5774 5773 5772 5771 5770 5769 5768 5767 5766 5766 5765 5764 5763 5762 5761 5760 5759 5757 5755 5754 5752 5750 5747 5745 5742 5740 5738 5735 5732 5729 5727 5724
5772 5771 5770 5770 5769 5768 5767 5766 5765 5764 5763 5762 5761 5760 5759 5759 5758 5757 5756 5755 5755 5754 5752 5750 5749 5747 5745 5744 5741 5738 5735 5733 5730 5727 5724 5721 5718 5716
5764 5764 5763 5762 5762 5761 5760 5759 5757 5756 5755 5754 5753 5752 5752 5751 5750 5750 5749 5748 5747 5746 5745 5744 5742 5740 5738 5736 5734 5731 5728 5725 5722 5719 5716 5713 5710 5707
5757 5756 5756 5755 5754 5753 5752 5751 5749 5748 5747 5746 5745 5745 5744 5743 5743 5742 5741 5741 5740 5739 5737 5736 5735 5733 5731 5729 5726 5724 5721 5718 5715 5712 5709 5705 5702 5699
5749 5749 5748 5748 5747 5746 5745 5744 5742 5741 5740 5739 5738 5737 5737 5736 5735 5734 5733 5733 5732 5731 5729 5728 5726 5724 5723 5720 5718 5715 5713 5710 5707 5704 5700 5697 5694 5691
5742 5741 5741 5740 5739 5739 5738 5737 5735 5734 5732 5731 5731 5730 5729 5728 5727 5725 5725 5724 5723 5722 5721 5719 5717 5715 5714 5712 5709 5707 5704 5701 5698 5695 5692 5689 5686 5683
5734 5734 5733 5732 5732 5731 5730 5730 5728 5727 5725 5724 5723 5722 5720 5719 5718 5717 5715 5715 5714 5713 5712 5710 5709 5707 5705 5703 5701 5698 5696 5693 5690 5687 5683 5681 5678 5674
5726 5726 5725 5725 5724 5723 5723 5722 5721 5719 5718 5716 5715 5714 5712 5711 5710 5709 5707 5706 5705 5703 5702 5701 5699 5697 5696 5694 5692 5689 5686 5684 5681 5678 5674 5671 5669 5665
5718 5718 5717 5716 5716 5715 5715 5714 5713 5711 5710 5709 5707 5706 5704 5703 5702 5701 5699 5698 5696 5695 5694 5692 5690 5688 5686 5684 5682 5680 5676 5673 5671 5668 5665 5662 5658 5655
5710 5709 5709 5708 5707 5707 5706 5706 5705 5703 5702 5701 5699 5698 5697 5695 5694 5692 5691 5689 5688 5686 5685 5683 5681 5679 5676 5674 5672 5670 5667 5663 5660 5658 5655 5652 5649 5645
5701 5701 5700 5699 5699 5698 5697 5697 5696 5695 5694 5693 5692 5690 5689 5687 5686 5684 5683 5681 5679 5677 5676 5674 5672 5670 5667 5664 5662 5659 5657 5653 5650 5646 5643 5641 5637 5634
5693 5692 5692 5691 5691 5690 5689 5688 5688 5687 5686 5685 5684 5683 5681 5680 5678 5677 5675 5674 5672 5670 5667 5665 5663 5660 5657 5654 5652 5649 5646 5643 5640 5637 5634 5630 5626 5623